Weather History for KORH - September, 2013

Change the Weather History Date:

Friday, September 6, 2013

  Actual Average Record
Temperature  
Mean Temperature 57 °F 65 °F  
Max Temperature 64 °F 73 °F 90 °F (1901)
Min Temperature 49 °F 56 °F 38 °F (1938)
Degree Days  
Heating Degree Days 8 3  
Month to date heating degree days 13 13  
Since 1 July heating degree days 32 52  
Cooling Degree Days 0 2  
Month to date cooling degree days 17 16  
Year to date cooling degree days 548 442  
Growing Degree Days 6 (Base 50)    
Moisture  
Dew Point 38 °F    
Average Humidity 59    
Maximum Humidity 80    
Minimum Humidity 37    
Precipitation  
Precipitation 0.00 in 0.11 in 4.79 in (2008)
Month to date precipitation 1.78 0.68  
Year to date precipitation 34.80 32.04  
Sea Level Pressure  
Sea Level Pressure 30.19 in    
Wind  
Wind Speed 8 mph (NW)    
Max Wind Speed 13 mph    
Max Gust Speed 19 mph    
Visibility 10 miles    
Events      
T = Trace of Precipitation, MM = Missing Value Source: NWS Daily Summary

Daily Weather History Graph

Daily Weather History Graph

Search for Another Location

Airport or City:

Trip Planner

Search our weather history database for the weather conditions in past years. The results will help you decide how hot, cold, wet, or windy it might be!

Date:

Astronomy

Sep. 06, 2013 Rise Set
Actual Time 6:18 AM EDT 7:12 PM EDT
Civil Twilight 5:49 AM EDT 7:40 PM EDT
Nautical Twilight 5:15 AM EDT 8:14 PM EDT
Astronomical Twilight 4:40 AM EDT 8:50 PM EDT
Moon 7:29 AM EDT (9/6) 7:32 PM EDT (9/6)
Length of Visible Light 13h 51m
Length of Day
12h 54m
New Moon, 1% of the Moon is Illuminated
Sep 6
New Moon
Sep 12
First Quarter
Sep 19
Full
Sep 26
Last Quarter
Oct 4
New

Hourly Weather History & Observations

Time (EDT) Temp. Dew Point Humidity Pressure Visibility Wind Dir Wind Speed Gust Speed Precip Events Conditions
12:54 AM 52.0 °F 37.9 °F 59% 30.17 in 10.0 mi North 9.2 mph - N/A   Clear
1:54 AM 51.1 °F 36.0 °F 56% 30.17 in 10.0 mi North 9.2 mph - N/A   Clear
2:54 AM 51.1 °F 35.1 °F 54% 30.18 in 10.0 mi North 8.1 mph - N/A   Clear
3:54 AM 51.1 °F 34.0 °F 52% 30.19 in 10.0 mi North 8.1 mph - N/A   Clear
4:54 AM 51.1 °F 34.0 °F 52% 30.21 in 10.0 mi North 6.9 mph - N/A   Clear
5:54 AM 50.0 °F 35.1 °F 57% 30.21 in 10.0 mi NNW 9.2 mph - N/A   Clear
6:54 AM 51.1 °F 35.1 °F 54% 30.23 in 10.0 mi North 9.2 mph - N/A   Clear
7:54 AM 53.1 °F 36.0 °F 52% 30.24 in 10.0 mi North 8.1 mph - N/A   Clear
8:54 AM 55.9 °F 36.0 °F 47% 30.25 in 10.0 mi North 6.9 mph - N/A   Clear
9:54 AM 57.0 °F 36.0 °F 45% 30.26 in 10.0 mi Variable 5.8 mph - N/A   Clear
10:54 AM 59.0 °F 34.0 °F 39% 30.26 in 10.0 mi North 6.9 mph - N/A   Clear
11:54 AM 61.0 °F 36.0 °F 39% 30.25 in 10.0 mi NNW 6.9 mph - N/A   Clear
12:54 PM 61.0 °F 36.0 °F 39% 30.23 in 10.0 mi NW 6.9 mph - N/A   Clear
1:54 PM 62.1 °F 37.0 °F 39% 30.22 in 10.0 mi Variable 3.5 mph - N/A   Clear
2:54 PM 63.0 °F 37.0 °F 38% 30.20 in 10.0 mi West 9.2 mph - N/A   Clear
3:54 PM 63.0 °F 37.9 °F 40% 30.18 in 10.0 mi WSW 8.1 mph - N/A   Clear
4:54 PM 63.0 °F 41.0 °F 45% 30.17 in 10.0 mi West 5.8 mph - N/A   Clear
5:54 PM 62.1 °F 37.9 °F 41% 30.17 in 10.0 mi West 6.9 mph - N/A   Clear
6:54 PM 57.0 °F 43.0 °F 59% 30.16 in 10.0 mi WSW 6.9 mph - N/A   Clear
7:54 PM 54.0 °F 44.1 °F 69% 30.16 in 10.0 mi WSW 5.8 mph - N/A   Clear
8:54 PM 53.1 °F 44.1 °F 71% 30.15 in 10.0 mi West 8.1 mph - N/A   Clear
9:54 PM 51.1 °F 44.1 °F 77% 30.14 in 10.0 mi WSW 10.4 mph - N/A   Clear
10:54 PM 50.0 °F 43.0 °F 77% 30.13 in 10.0 mi WSW 8.1 mph - N/A   Clear
11:54 PM 50.0 °F 44.1 °F 80% 30.12 in 10.0 mi WSW 11.5 mph - N/A   Clear